Погода в Ростовке

Россия / Омская область     55°47′59″N   74°22′48″E
темп.,
°C
ветер,
м/с
пор.,
м/с
влажн.,
%
обл.,
%
осадки,
мм/ч
давл.,
гПа
погр.,
м
29 июня, ср
ср2900:00+12ююв5994100 1.1 1001251
03:00+12ю6139142 0.4 999388
06:00+12юз3697100 0.6 998236
09:00+12зсз2296100 2.1 995213
12:00+12сз4698100 11.4 993379
15:00+10зсз81296100 5.6 992764
18:00+9з91494100 13.3 992822
21:00+9з91492100 1.6 991926
30 июня, чт
чт3000:00+8зюз131996100 5.9 9881207
03:00+8з142295100 13.5 9871205
06:00+7з132095100 20.1 990861
09:00+8з101692100 0.5 993966
12:00+9з91489100 0.7 9961026
15:00+9з71385100 0.2 999873
18:00+11зсз81379100 0.3 10001218
21:00+10зсз71278100 0.0 1001946
1 июля, пт
пт100:00+10з81383100 0.1 1002844
03:00+9з71488100 0.0 1002792
06:00+9з81486100 0.0 1003683
09:00+9з71387100 0.1 1004731
12:00+10з71287100 0.1 1006651
15:00+15зсз71176100 0.0 10061169
18:00+13зсз6107996 0.1 1008871
21:00+13сз6117687 0.0 1008616
2 июля, сб
сб200:00+12з51089100 0.0 1009352
03:00+9з389695 0.0 1009166
06:00+10з378899 0.0 1009197
09:00+14з4578100 0.0 1009434
12:00+17зсз466793 0.6 10091023
15:00+17зсз3564100 0.6 10091099
18:00+17зсз457363 0.9 1009923
21:00+13сз2286100 0.6 100940
3 июля, вс
вс300:00+10сз229172 0.6 100811
03:00+9зсз229236 0.0 100824
06:00+10зсз249474 0.0 1007107
09:00+14сз237812 0.0 1007444
12:00+17сз33645 0.0 10061142
15:00+16ссз4475100 0.6 1005659
18:00+15ссв358374 1.2 1004462
21:00+13с3692100 0.1 1003186